When you browse on this site, cookies collect data to enhance your experience and personalize the content and advertising you see.
Visit our Privacy Policy to learn more. By continuing to use the site, you agree to this use of cookies and data.
  • In Netherlands
  • List of Countries
  • For 7 days
  • Water Temperature
  • Satellite Maps
  • Weather Map
  • Weather Widgets
  • user-avatar
    Login

    Hourly Weather Konstantynów Łódzki

    Today, 25 April, Thursday

    Time Temperature Precipitation Wind Pressure Humidity
    00:00 +14°C° 0 mm 6 mps 745 mmHg 75%
    01:00 +14°C° 0 mm 5 mps 745 mmHg 75%
    02:00 +13°C° 0 mm 5 mps 745 mmHg 76%
    03:00 +13°C° 0 mm 5 mps 745 mmHg 77%
    04:00 +13°C° 0 mm 5 mps 745 mmHg 78%
    05:00 +14°C° 0 mm 5 mps 745 mmHg 75%
    06:00 +15°C° 0 mm 6 mps 745 mmHg 72%
    07:00 +16°C° 0 mm 6 mps 745 mmHg 69%
    08:00 +19°C° 0 mm 5 mps 745 mmHg 64%
    09:00 +20°C° 0 mm 5 mps 745 mmHg 59%
    10:00 +22°C° 0 mm 5 mps 745 mmHg 54%
    11:00 +23°C° 0 mm 5 mps 745 mmHg 52%
    12:00 +23°C° 0 mm 4 mps 745 mmHg 50%
    13:00 +25°C° 0 mm 4 mps 745 mmHg 48%
    14:00 +25°C° 0 mm 3 mps 745 mmHg 49%
    15:00 +25°C° 0 mm 3 mps 745 mmHg 49%
    16:00 +24°C° 0 mm 2 mps 745 mmHg 50%
    17:00 +23°C° 0 mm 2 mps 745 mmHg 54%
    18:00 +22°C° 0 mm 1 mps 744 mmHg 58%
    19:00 +21°C° 0 mm 1 mps 744 mmHg 63%
    20:00 +20°C° 0 mm 1 mps 744 mmHg 65%
    21:00 +18°C° 0 mm 2 mps 745 mmHg 68%
    22:00 +18°C° 0 mm 2 mps 745 mmHg 71%
    23:00 +17°C° 0 mm 2 mps 745 mmHg 72%

    Tomorrow, 26 April, Friday

    Time Temperature Precipitation Wind Pressure Humidity
    00:00 +17°C° 0 mm 2 mps 744 mmHg 74%
    01:00 +16°C° 0 mm 3 mps 744 mmHg 75%
    02:00 +16°C° 0 mm 3 mps 744 mmHg 75%
    03:00 +14°C° 0 mm 3 mps 743 mmHg 75%
    04:00 +14°C° 0 mm 3 mps 743 mmHg 75%
    05:00 +15°C° 0 mm 4 mps 743 mmHg 71%
    06:00 +17°C° 0 mm 4 mps 742 mmHg 67%
    07:00 +19°C° 0 mm 5 mps 742 mmHg 63%
    08:00 +20°C° 0 mm 5 mps 742 mmHg 58%
    09:00 +22°C° 0 mm 4 mps 742 mmHg 53%
    10:00 +23°C° 0 mm 4 mps 741 mmHg 48%
    11:00 +25°C° 0 mm 4 mps 741 mmHg 46%
    12:00 +26°C° 0 mm 4 mps 741 mmHg 44%
    13:00 +26°C° 0 mm 4 mps 741 mmHg 42%
    14:00 +27°C° 0 mm 4 mps 740 mmHg 42%
    15:00 +27°C° 0 mm 4 mps 740 mmHg 42%
    16:00 +27°C° 0 mm 4 mps 740 mmHg 42%
    17:00 +25°C° 0 mm 3 mps 739 mmHg 47%
    18:00 +24°C° 0 mm 3 mps 739 mmHg 53%
    19:00 +21°C° 0 mm 2 mps 739 mmHg 58%
    20:00 +20°C° 0 mm 3 mps 739 mmHg 58%
    21:00 +20°C° 0 mm 3 mps 739 mmHg 58%
    22:00 +19°C° 0 mm 4 mps 739 mmHg 58%
    23:00 +18°C° 0 mm 4 mps 739 mmHg 66%

    Day after tomorrow, 27 April, Saturday

    Time Temperature Precipitation Wind Pressure Humidity
    00:00 +17°C° 0 mm 5 mps 740 mmHg 74%
    01:00 +16°C° 0 mm 5 mps 740 mmHg 82%
    02:00 +15°C° 0.1 mm 6 mps 740 mmHg 83%
    03:00 +15°C° 0.1 mm 6 mps 741 mmHg 84%
    04:00 +14°C° 0.1 mm 7 mps 741 mmHg 85%
    05:00 +12°C° 0.2 mm 7 mps 742 mmHg 85%
    06:00 +13°C° 0.2 mm 6 mps 742 mmHg 84%
    07:00 +11°C° 0.2 mm 6 mps 742 mmHg 84%
    08:00 +11°C° 0 mm 6 mps 743 mmHg 81%
    09:00 +13°C° 0 mm 6 mps 743 mmHg 79%
    10:00 +13°C° 0 mm 6 mps 743 mmHg 77%
    11:00 +13°C° 0 mm 6 mps 743 mmHg 74%
    12:00 +14°C° 0 mm 5 mps 744 mmHg 72%
    13:00 +14°C° 0 mm 5 mps 744 mmHg 70%
    14:00 +15°C° 0 mm 4 mps 744 mmHg 67%
    15:00 +15°C° 0 mm 4 mps 743 mmHg 65%
    16:00 +15°C° 0 mm 4 mps 743 mmHg 63%
    17:00 +16°C° 0 mm 3 mps 743 mmHg 65%
    18:00 +15°C° 0 mm 2 mps 743 mmHg 68%
    19:00 +14°C° 0 mm 1 mps 743 mmHg 70%
    20:00 +14°C° 0.1 mm 1 mps 743 mmHg 73%
    21:00 +13°C° 0.1 mm 1 mps 744 mmHg 76%
    22:00 +13°C° 0.1 mm 1 mps 744 mmHg 78%
    23:00 +13°C° 0.3 mm 1 mps 744 mmHg 80%

    28 April, Sunday

    Time Temperature Precipitation Wind Pressure Humidity
    00:00 +12°C° 0.3 mm 1 mps 744 mmHg 82%
    01:00 +12°C° 0.3 mm 1 mps 744 mmHg 84%
    02:00 +12°C° 0.2 mm 1 mps 744 mmHg 84%
    03:00 +12°C° 0.2 mm 1 mps 744 mmHg 84%
    04:00 +10°C° 0.2 mm 2 mps 744 mmHg 84%
    05:00 +12°C° 0.1 mm 2 mps 745 mmHg 83%
    06:00 +11°C° 0.1 mm 3 mps 745 mmHg 82%
    07:00 +11°C° 0.1 mm 3 mps 745 mmHg 81%
    08:00 +12°C° 0.1 mm 4 mps 746 mmHg 80%
    09:00 +13°C° 0.1 mm 4 mps 746 mmHg 79%
    10:00 +13°C° 0.1 mm 5 mps 746 mmHg 78%
    11:00 +13°C° 0.6 mm 5 mps 746 mmHg 77%
    12:00 +14°C° 0.6 mm 5 mps 746 mmHg 75%
    13:00 +14°C° 0.6 mm 5 mps 746 mmHg 74%
    14:00 +13°C° 0.8 mm 4 mps 746 mmHg 77%
    15:00 +13°C° 0.8 mm 4 mps 746 mmHg 79%
    16:00 +12°C° 0.8 mm 4 mps 746 mmHg 82%
    17:00 +12°C° 0.3 mm 4 mps 746 mmHg 84%
    18:00 +11°C° 0.3 mm 3 mps 746 mmHg 85%
    19:00 +10°C° 0.3 mm 3 mps 746 mmHg 87%
    20:00 +10°C° 0.2 mm 3 mps 746 mmHg 88%
    21:00 +10°C° 0.2 mm 4 mps 746 mmHg 88%
    22:00 +8°C° 0.2 mm 4 mps 746 mmHg 89%
    23:00 +8°C° 0.4 mm 4 mps 746 mmHg 90%

    29 April, Monday

    Time Temperature Precipitation Wind Pressure Humidity
    00:00 +8°C° 0.4 mm 4 mps 746 mmHg 91%
    01:00 +8°C° 0.4 mm 4 mps 745 mmHg 91%
    02:00 +8°C° 0.8 mm 4 mps 745 mmHg 92%
    03:00 +8°C° 0.8 mm 4 mps 745 mmHg 93%
    04:00 +8°C° 0.8 mm 4 mps 745 mmHg 94%
    05:00 +8°C° 2.1 mm 4 mps 745 mmHg 94%
    06:00 +8°C° 2.1 mm 4 mps 745 mmHg 95%
    07:00 +8°C° 2.1 mm 4 mps 745 mmHg 95%
    08:00 +10°C° 0.6 mm 4 mps 745 mmHg 94%
    09:00 +10°C° 0.6 mm 4 mps 745 mmHg 93%
    10:00 +11°C° 0.6 mm 4 mps 745 mmHg 92%
    11:00 +9°C° 0.2 mm 5 mps 745 mmHg 91%
    12:00 +9°C° 0.2 mm 5 mps 745 mmHg 90%
    13:00 +9°C° 0.2 mm 6 mps 745 mmHg 89%
    14:00 +8°C° 0.7 mm 5 mps 745 mmHg 89%
    15:00 +8°C° 0.7 mm 5 mps 745 mmHg 89%
    16:00 +7°C° 0.7 mm 5 mps 745 mmHg 89%
    17:00 +7°C° 0.2 mm 4 mps 745 mmHg 89%
    18:00 +8°C° 0.2 mm 4 mps 745 mmHg 88%
    19:00 +9°C° 0.2 mm 3 mps 746 mmHg 88%
    20:00 +8°C° 0 mm 3 mps 746 mmHg 88%
    21:00 +8°C° 0 mm 3 mps 746 mmHg 88%
    22:00 +7°C° 0 mm 3 mps 746 mmHg 89%
    23:00 +6°C° 0 mm 4 mps 746 mmHg 88%

    30 April, Tuesday

    Time Temperature Precipitation Wind Pressure Humidity
    00:00 +6°C° 0 mm 4 mps 746 mmHg 87%
    01:00 +5°C° 0 mm 4 mps 746 mmHg 85%
    02:00 +5°C° 0 mm 4 mps 746 mmHg 85%
    03:00 +4°C° 0 mm 4 mps 746 mmHg 84%
    04:00 +3°C° 0 mm 4 mps 746 mmHg 83%
    05:00 +3°C° 0 mm 5 mps 746 mmHg 80%
    06:00 +5°C° 0 mm 5 mps 747 mmHg 76%
    07:00 +5°C° 0 mm 6 mps 747 mmHg 73%
    08:00 +8°C° 0 mm 6 mps 747 mmHg 67%
    09:00 +9°C° 0 mm 6 mps 747 mmHg 61%
    10:00 +10°C° 0 mm 6 mps 747 mmHg 55%
    11:00 +11°C° 0 mm 6 mps 747 mmHg 54%
    12:00 +11°C° 0 mm 6 mps 747 mmHg 53%
    13:00 +13°C° 0 mm 6 mps 747 mmHg 52%
    14:00 +13°C° 0 mm 5 mps 746 mmHg 54%
    15:00 +12°C° 0 mm 5 mps 746 mmHg 56%
    16:00 +12°C° 0 mm 4 mps 746 mmHg 58%
    17:00 +11°C° 0 mm 4 mps 746 mmHg 60%
    18:00 +11°C° 0 mm 3 mps 746 mmHg 62%
    19:00 +10°C° 0 mm 3 mps 746 mmHg 65%
    20:00 +9°C° 0 mm 3 mps 746 mmHg 68%
    21:00 +8°C° 0 mm 3 mps 747 mmHg 72%
    22:00 +7°C° 0 mm 3 mps 747 mmHg 76%
    23:00 +7°C° 0 mm 3 mps 747 mmHg 74%
    Show more